LSI376 LIMC-EBLG

Flight info

Callsign LSI376
Flight time 0h 52m
Altitude 34000
Route DOGUB DCT PUNSA DCT DEVDI DCT SUTAL N852 GESLO
Aircraft B77L/H-SDE1E2E3FGHIJ2J3J4J5M1RWXY/LB1D1

Departure

Time 2026-05-06 11:45
Airport Milan Malpensa International Airport (LIMC)

Arrival

Time 2026-05-06 12:37
Airport Liège Airport (EBLG)
Time Latitude Longitude Altitude Speed Heading
2026-05-06 11:14 45.61390 8.72044 746 ft 0 kts 259°
2026-05-06 11:31 45.61392 8.72063 746 ft 4 kts 265°
2026-05-06 11:31 45.61392 8.72101 735 ft 4 kts 275°
2026-05-06 11:31 45.61390 8.72134 742 ft 4 kts 269°
2026-05-06 11:32 45.61397 8.72163 741 ft 4 kts 202°
2026-05-06 11:32 45.61422 8.72168 742 ft 4 kts 174°
2026-05-06 11:32 45.61448 8.72162 743 ft 4 kts 169°
2026-05-06 11:32 45.61475 8.72155 741 ft 4 kts 169°
2026-05-06 11:33 45.61497 8.72149 741 ft 1 kts 169°
2026-05-06 11:37 45.61465 8.72158 743 ft 11 kts 169°
2026-05-06 11:37 45.61363 8.72185 742 ft 19 kts 169°
2026-05-06 11:37 45.61226 8.72223 742 ft 24 kts 169°
2026-05-06 11:37 45.61040 8.72274 744 ft 26 kts 169°
2026-05-06 11:38 45.60858 8.72326 745 ft 27 kts 168°
2026-05-06 11:38 45.60725 8.72362 745 ft 14 kts 169°
2026-05-06 11:38 45.60646 8.72439 743 ft 15 kts 116°
2026-05-06 11:38 45.60631 8.72577 745 ft 15 kts 96°
2026-05-06 11:39 45.60621 8.72725 746 ft 15 kts 96°
2026-05-06 11:39 45.60609 8.72878 742 ft 16 kts 96°
2026-05-06 11:39 45.60602 8.72981 745 ft 16 kts 96°
2026-05-06 11:39 45.60591 8.73140 744 ft 15 kts 93°
2026-05-06 11:40 45.60650 8.73280 743 ft 0 kts 22°
2026-05-06 11:40 45.60657 8.73284 743 ft 2 kts 22°
2026-05-06 11:40 45.60666 8.73289 742 ft 3 kts 22°
2026-05-06 11:40 45.60713 8.73316 743 ft 14 kts 21°
2026-05-06 11:41 45.60854 8.73395 743 ft 29 kts 21°
2026-05-06 11:41 45.60955 8.73407 743 ft 14 kts 343°
2026-05-06 11:41 45.61096 8.73352 742 ft 18 kts 349°
2026-05-06 11:41 45.61227 8.73317 746 ft 20 kts 349°
2026-05-06 11:42 45.61364 8.73278 746 ft 20 kts 348°
2026-05-06 11:42 45.61500 8.73239 745 ft 20 kts 349°
2026-05-06 11:42 45.61605 8.73245 744 ft 14 kts 51°
2026-05-06 11:42 45.61629 8.73381 746 ft 15 kts 82°
2026-05-06 11:43 45.61595 8.73516 742 ft 15 kts 118°
2026-05-06 11:43 45.61587 8.73648 744 ft 13 kts 75°
2026-05-06 11:43 45.61621 8.73728 742 ft 9 kts 17°
2026-05-06 11:44 45.61931 8.73651 742 ft 72 kts 349°
2026-05-06 11:44 45.62659 8.73448 744 ft 139 kts 349°
2026-05-06 11:44 45.63793 8.73137 815 ft 183 kts 349°
2026-05-06 11:44 45.65040 8.72829 1346 ft 188 kts 354°
2026-05-06 11:45 45.66367 8.72671 1929 ft 194 kts
2026-05-06 11:45 45.67721 8.72644 2601 ft 196 kts
2026-05-06 11:45 45.69101 8.72629 3242 ft 199 kts
2026-05-06 11:45 45.70493 8.72614 3939 ft 201 kts
2026-05-06 11:46 45.71921 8.72357 4226 ft 218 kts 333°
2026-05-06 11:46 45.73009 8.70840 4462 ft 229 kts 289°
2026-05-06 11:46 45.73150 8.68599 4976 ft 225 kts 253°
2026-05-06 11:46 45.72721 8.66424 5538 ft 233 kts 250°
2026-05-06 11:47 45.72284 8.64200 6271 ft 236 kts 252°
2026-05-06 11:47 45.71849 8.61936 7044 ft 236 kts 253°
2026-05-06 11:47 45.71338 8.59718 7743 ft 237 kts 242°
2026-05-06 11:47 45.70460 8.57587 8004 ft 260 kts 236°
2026-05-06 11:48 45.69489 8.55360 8501 ft 268 kts 244°
2026-05-06 11:48 45.69167 8.52713 9138 ft 278 kts 275°
2026-05-06 11:48 45.69874 8.50125 9923 ft 287 kts 304°
2026-05-06 11:48 45.71311 8.48066 10400 ft 302 kts 316°
2026-05-06 11:49 45.72969 8.46012 10605 ft 329 kts 316°
2026-05-06 11:49 45.74777 8.43797 10820 ft 356 kts 317°
2026-05-06 11:49 45.76724 8.41422 11242 ft 375 kts 317°
2026-05-06 11:49 45.78734 8.38967 11957 ft 385 kts 317°
2026-05-06 11:50 45.80784 8.36451 12884 ft 390 kts 316°
2026-05-06 11:50 45.82857 8.33897 13826 ft 395 kts 316°
2026-05-06 11:50 45.84949 8.31306 14634 ft 401 kts 316°
2026-05-06 11:50 45.87075 8.28661 15526 ft 406 kts 316°
2026-05-06 11:51 45.89220 8.25988 16382 ft 411 kts 316°
2026-05-06 11:51 45.91394 8.23278 17177 ft 417 kts 316°
2026-05-06 11:51 45.93603 8.20524 17974 ft 423 kts 316°
2026-05-06 11:51 45.95842 8.17727 18676 ft 429 kts 316°
2026-05-06 11:52 45.98100 8.14895 19433 ft 432 kts 315°
2026-05-06 11:52 46.00368 8.12056 20199 ft 435 kts 315°
2026-05-06 11:52 46.02662 8.09182 20949 ft 438 kts 315°
2026-05-06 11:52 46.04964 8.06320 21701 ft 442 kts 316°
2026-05-06 11:53 46.07538 8.03806 22331 ft 454 kts 327°
2026-05-06 11:53 46.10455 8.01943 23021 ft 463 kts 337°
2026-05-06 11:53 46.13592 8.00763 23704 ft 470 kts 345°
2026-05-06 11:53 46.16828 7.99890 24251 ft 476 kts 346°
2026-05-06 11:54 46.20074 7.99048 24681 ft 483 kts 346°
2026-05-06 11:54 46.23399 7.98178 25230 ft 487 kts 347°
2026-05-06 11:54 46.26734 7.97286 25813 ft 490 kts 347°
2026-05-06 11:54 46.30067 7.96373 26319 ft 495 kts 347°
2026-05-06 11:55 46.33478 7.95422 26720 ft 502 kts 346°
2026-05-06 11:55 46.36881 7.94466 27169 ft 508 kts 346°
2026-05-06 11:55 46.40372 7.93484 27649 ft 512 kts 346°
2026-05-06 11:55 46.43884 7.92489 28168 ft 516 kts 345°
2026-05-06 11:56 46.47419 7.91484 28642 ft 520 kts 345°
2026-05-06 11:56 46.50990 7.90471 29077 ft 525 kts 345°
2026-05-06 11:56 46.54585 7.89448 29405 ft 529 kts 345°
2026-05-06 11:56 46.58214 7.88418 29758 ft 532 kts 345°
2026-05-06 11:57 46.61847 7.87385 30186 ft 532 kts 344°
2026-05-06 11:57 46.65464 7.86358 30728 ft 527 kts 345°
2026-05-06 11:57 46.69064 7.85333 31233 ft 527 kts 344°
2026-05-06 11:57 46.72665 7.84306 31673 ft 527 kts 345°
2026-05-06 11:58 46.76269 7.83276 32130 ft 527 kts 345°
2026-05-06 11:58 46.79860 7.82248 32612 ft 525 kts 345°
2026-05-06 11:58 46.83443 7.81221 33074 ft 524 kts 345°
2026-05-06 11:58 46.87011 7.80195 33500 ft 523 kts 345°
2026-05-06 11:59 46.90586 7.79166 33899 ft 524 kts 345°
2026-05-06 11:59 46.94188 7.78126 33869 ft 529 kts 345°
2026-05-06 11:59 47.01407 7.76044 33860 ft 526 kts 345°
2026-05-06 12:00 47.08509 7.73993 33863 ft 522 kts 345°
2026-05-06 12:00 47.15643 7.71922 33879 ft 523 kts 344°
2026-05-06 12:01 47.22795 7.69838 33871 ft 525 kts 344°
2026-05-06 12:01 47.29977 7.67742 33868 ft 527 kts 344°
2026-05-06 12:02 47.37183 7.65634 33876 ft 529 kts 344°
2026-05-06 12:02 47.44417 7.63512 33854 ft 531 kts 344°
2026-05-06 12:03 47.51654 7.61384 33860 ft 531 kts 344°
2026-05-06 12:03 47.58888 7.59251 33865 ft 529 kts 344°
2026-05-06 12:04 47.66104 7.57116 33857 ft 527 kts 344°
2026-05-06 12:04 47.73200 7.54845 33860 ft 521 kts 340°
2026-05-06 12:05 47.79962 7.51087 33859 ft 512 kts 332°
2026-05-06 12:05 47.86456 7.46779 33829 ft 510 kts 331°
2026-05-06 12:06 47.92889 7.42525 33819 ft 509 kts 332°
2026-05-06 12:06 47.99381 7.38281 33818 ft 510 kts 332°
2026-05-06 12:07 48.05890 7.34039 33805 ft 510 kts 332°
2026-05-06 12:07 48.12398 7.29788 33802 ft 510 kts 332°
2026-05-06 12:08 48.18905 7.25523 33823 ft 510 kts 333°
2026-05-06 12:08 48.25406 7.21247 33812 ft 509 kts 333°
2026-05-06 12:09 48.31874 7.16981 33804 ft 506 kts 333°
2026-05-06 12:09 48.38306 7.12727 33811 ft 503 kts 333°
2026-05-06 12:10 48.44698 7.08488 33808 ft 501 kts 333°
2026-05-06 12:10 48.51063 7.04254 33801 ft 501 kts 333°
2026-05-06 12:11 48.57439 7.00002 33797 ft 500 kts 333°
2026-05-06 12:11 48.63004 6.96281 33797 ft 500 kts 333°
2026-05-06 12:12 48.69277 6.92074 33808 ft 501 kts 334°
2026-05-06 12:12 48.75477 6.87907 33799 ft 501 kts 334°
2026-05-06 12:13 48.81851 6.83611 33797 ft 501 kts 334°
2026-05-06 12:13 48.88221 6.79305 33804 ft 501 kts 334°
2026-05-06 12:14 48.94585 6.74991 33796 ft 501 kts 334°
2026-05-06 12:14 49.00956 6.70661 33799 ft 501 kts 334°
2026-05-06 12:15 49.07289 6.66344 33803 ft 501 kts 333°
2026-05-06 12:15 49.13630 6.62009 33818 ft 501 kts 334°
2026-05-06 12:16 49.20002 6.57641 33812 ft 502 kts 334°
2026-05-06 12:16 49.26369 6.53264 33804 ft 502 kts 334°
2026-05-06 12:17 49.32753 6.48862 33804 ft 503 kts 334°
2026-05-06 12:17 49.39135 6.44450 33801 ft 503 kts 334°
2026-05-06 12:18 49.45516 6.40025 33802 ft 503 kts 334°
2026-05-06 12:18 49.51025 6.36326 33805 ft 503 kts 335°
2026-05-06 12:19 49.57510 6.32206 33807 ft 503 kts 335°
2026-05-06 12:19 49.63942 6.28053 33289 ft 509 kts 335°
2026-05-06 12:20 49.67201 6.25882 32501 ft 509 kts 334°
2026-05-06 12:20 49.70450 6.23676 31478 ft 509 kts 334°
2026-05-06 12:20 49.73685 6.21464 30522 ft 507 kts 334°
2026-05-06 12:20 49.76861 6.19295 29848 ft 500 kts 334°
2026-05-06 12:21 49.80024 6.17141 29112 ft 492 kts 334°
2026-05-06 12:21 49.83132 6.15025 28506 ft 484 kts 335°
2026-05-06 12:21 49.86201 6.12951 27889 ft 476 kts 336°
2026-05-06 12:21 49.89255 6.11101 27275 ft 470 kts 338°
2026-05-06 12:22 49.92271 6.09423 26358 ft 448 kts 339°
2026-05-06 12:22 49.95173 6.07810 24951 ft 440 kts 338°
2026-05-06 12:22 49.98036 6.06188 23512 ft 435 kts 338°
2026-05-06 12:22 50.00864 6.04563 21862 ft 430 kts 337°
2026-05-06 12:23 50.03645 6.02959 20373 ft 423 kts 337°
2026-05-06 12:23 50.06282 6.01071 19051 ft 411 kts 326°
2026-05-06 12:23 50.07825 5.99420 18205 ft 403 kts 319°
2026-05-06 12:23 50.10455 5.95435 16334 ft 386 kts 306°
2026-05-06 12:24 50.12051 5.92143 15041 ft 376 kts 304°
2026-05-06 12:24 50.13596 5.88905 13797 ft 367 kts 304°
2026-05-06 12:24 50.15083 5.85800 12777 ft 354 kts 305°
2026-05-06 12:24 50.16055 5.83779 12441 ft 335 kts 305°
2026-05-06 12:25 50.17809 5.80142 12062 ft 298 kts 305°
2026-05-06 12:25 50.18620 5.78462 11784 ft 285 kts 305°
2026-05-06 12:25 50.20166 5.75256 11008 ft 270 kts 305°
2026-05-06 12:25 50.20913 5.73703 10572 ft 267 kts 306°
2026-05-06 12:26 50.21995 5.71456 10332 ft 258 kts 306°
2026-05-06 12:26 50.23108 5.69143 10091 ft 275 kts 306°
2026-05-06 12:26 50.24265 5.66734 9791 ft 279 kts 306°
2026-05-06 12:26 50.25430 5.64311 9450 ft 277 kts 306°
2026-05-06 12:27 50.26577 5.61923 9151 ft 272 kts 306°
2026-05-06 12:27 50.27701 5.59586 8858 ft 266 kts 307°
2026-05-06 12:27 50.28799 5.57298 8588 ft 260 kts 307°
2026-05-06 12:27 50.29875 5.55049 8317 ft 258 kts 308°
2026-05-06 12:28 50.30722 5.53283 8108 ft 258 kts 308°
2026-05-06 12:28 50.31800 5.51034 7844 ft 258 kts 309°
2026-05-06 12:28 50.32878 5.48783 7582 ft 258 kts 309°
2026-05-06 12:28 50.33958 5.46524 7313 ft 260 kts 309°
2026-05-06 12:29 50.35045 5.44250 7055 ft 261 kts 309°
2026-05-06 12:29 50.36133 5.41968 6780 ft 262 kts 309°
2026-05-06 12:29 50.37219 5.39692 6506 ft 259 kts 309°
2026-05-06 12:29 50.38287 5.37448 6232 ft 254 kts 309°
2026-05-06 12:30 50.39062 5.35818 6028 ft 251 kts 309°
2026-05-06 12:30 50.40074 5.33690 5773 ft 250 kts 309°
2026-05-06 12:30 50.41119 5.31492 5499 ft 244 kts 310°
2026-05-06 12:30 50.42173 5.29538 5226 ft 225 kts 318°
2026-05-06 12:31 50.43228 5.27928 5183 ft 207 kts 319°
2026-05-06 12:31 50.44263 5.26361 4989 ft 202 kts 319°
2026-05-06 12:31 50.45243 5.24857 4815 ft 192 kts 319°
2026-05-06 12:31 50.46171 5.23423 4580 ft 183 kts 319°
2026-05-06 12:32 50.47152 5.22224 4362 ft 177 kts 341°
2026-05-06 12:32 50.48336 5.21976 4201 ft 176 kts 12°
2026-05-06 12:32 50.49408 5.22854 4023 ft 176 kts 33°
2026-05-06 12:32 50.50398 5.23995 4017 ft 177 kts 36°
2026-05-06 12:33 50.51381 5.25207 3911 ft 183 kts 36°
2026-05-06 12:33 50.52350 5.26489 3647 ft 178 kts 40°
2026-05-06 12:33 50.53209 5.27780 3434 ft 163 kts 41°
2026-05-06 12:33 50.53996 5.29006 3209 ft 157 kts 42°
2026-05-06 12:34 50.54765 5.30215 2997 ft 156 kts 43°
2026-05-06 12:34 50.55532 5.31427 2789 ft 157 kts 42°
2026-05-06 12:34 50.56301 5.32644 2569 ft 157 kts 42°
2026-05-06 12:34 50.57069 5.33857 2353 ft 156 kts 42°
2026-05-06 12:35 50.57823 5.35051 2126 ft 150 kts 43°
2026-05-06 12:35 50.58528 5.36167 1930 ft 140 kts 42°
2026-05-06 12:35 50.59209 5.37244 1748 ft 139 kts 41°
2026-05-06 12:35 50.59893 5.38325 1563 ft 139 kts 42°
2026-05-06 12:36 50.60574 5.39405 1382 ft 139 kts 42°
2026-05-06 12:36 50.61258 5.40485 1135 ft 139 kts 43°
2026-05-06 12:36 50.61931 5.41559 974 ft 138 kts 44°
2026-05-06 12:36 50.62612 5.42624 766 ft 138 kts 44°
2026-05-06 12:37 50.63288 5.43698 656 ft 132 kts 45°
2026-05-06 12:37 50.63816 5.44533 635 ft 85 kts 45°
2026-05-06 12:37 50.64113 5.45004 603 ft 39 kts 45°
2026-05-06 12:37 50.64301 5.45299 602 ft 31 kts 45°
2026-05-06 12:38 50.64373 5.45413 620 ft 14 kts 48°
2026-05-06 12:38 50.64391 5.45554 621 ft 14 kts 93°
2026-05-06 12:38 50.64388 5.45664 623 ft 7 kts 93°
2026-05-06 12:38 50.64369 5.45712 634 ft 0 kts 145°
2026-05-06 12:39 50.64368 5.45712 634 ft 0 kts 145°
2026-05-06 12:39 50.64367 5.45714 634 ft 0 kts 145°
2026-05-06 12:39 50.64365 5.45716 634 ft 0 kts 145°
2026-05-06 12:39 50.64360 5.45718 628 ft 2 kts 158°
2026-05-06 12:40 50.64332 5.45704 628 ft 7 kts 211°
2026-05-06 12:40 50.64291 5.45651 632 ft 1 kts 223°
2026-05-06 12:40 50.64267 5.45612 631 ft 8 kts 227°
2026-05-06 12:40 50.64211 5.45520 629 ft 15 kts 225°
2026-05-06 12:41 50.64164 5.45445 632 ft 4 kts 226°
2026-05-06 12:41 50.64161 5.45439 633 ft 3 kts 226°
2026-05-06 12:41 50.64130 5.45390 633 ft 10 kts 225°
2026-05-06 12:41 50.64084 5.45358 628 ft 8 kts 171°
2026-05-06 12:42 50.64033 5.45424 634 ft 4 kts 134°
2026-05-06 12:42 50.64028 5.45432 632 ft 1 kts 134°
2026-05-06 12:42 50.64024 5.45439 628 ft 0 kts 135°